Powrót do katalogu

KUIPER-00290

AktywnyŁącznośćLEO
NORAD 68592·PAYLOAD·🇺🇸 United States

Wystrzelony Apr 4, 2026 z Cape Canaveral Space Force Station

Loading…

Następne Przeloty (najbliższe 24 godziny)

TLE

ŚwieżeSource: CelesTrak SupGP

Epoka: Sep 14, 2026, 20:18 UTC

1 68592C 26072V   26257.84629630  .00520270  00000+0  70031-1 0  2571
2 68592  51.9006 141.6724 0000756  84.9116 230.2479 14.78238179    13

Śledź KUIPER-00290 w czasie rzeczywistym z AllMySat

Download on the App Store